Погода в Игриме

Россия / Ханты-Мансийский автономный округ - Югра     63°11′46″N   64°25′18″E
темп.,
°C
ветер,
м/с
пор.,
м/с
влажн.,
%
обл.,
%
осадки,
мм/ч
давл.,
гПа
погр.,
м
9 мая, вс
вс923:00+11юз1187100 1.3 101810
02:00+9с1190100 0.0 101910
05:00+8ссв119198 0.0 102013
08:00+12всв23647 0.0 1021316
11:00+16вюв22534 0.0 1022877
14:00+19ююв23489 0.0 10221545
17:00+20ююв334528 0.0 10221720
20:00+17юв37562 0.0 1023250
10 мая, пн
пн1023:00+14юв4126192 0.0 1023338
02:00+13ююв41165100 0.0 1024337
05:00+12ююв41170100 0.0 1025321
08:00+12ююв4106727 0.0 1025364
11:00+20ю58435 0.0 1025991
14:00+22ю68360 0.0 10241875
17:00+23ю58343 0.0 10222555
20:00+20ю511410 0.0 1022718
11 мая, вт
вт1123:00+16ю5145037 0.0 1021481
02:00+15ююз41357100 0.0 1022491
05:00+12юз2672100 0.1 1022140
08:00+6с51191100 3.3 1025610
11:00+6с4983100 5.9 1027568
14:00+12ссв463998 0.0 10271379
17:00+13ссв343427 0.0 10271532
20:00+11в2547100 0.0 1028139
12 мая, ср
ср1223:00+7ююв22587 0.0 102739
02:00+6ю266893 0.0 1027114
05:00+6ю2474100 0.0 1027102
08:00+9юз1363100 0.0 1026198
11:00+14зюз245092 0.0 10251118
14:00+14зюз3459100 0.0 1024859
17:00+16зюз3660100 0.0 1023629
20:00+15зюз3867100 0.0 1021237
13 мая, чт
чт1323:00+13зюз31180100 0.0 1020242
02:00+13з41379100 0.0 1018450
05:00+11с4979100 0.0 1021627
08:00+10с58608 0.0 1024856
11:00+13с47366 0.0 10251411
14:00+15с472847 0.0 10261906
17:00+16с46285 0.0 10252003
20:00+12св463511 0.0 1026649